CZ-6A DEB, 56627

Orbit data source: Space-Track

CZ-6A DEB, 56627 is space debris in SSO originally from a launch on Fri, 11 Nov 2022 UTC launched from the Taiyaun Space Center, China (TSC). Debris objects in space refer to the collection of defunct objects orbiting the Earth. Examples of debris include non-operational satellites, rocket bodies, and fragments generated from explosions, collisions, or faulty payload assembly.

Loading next visibility...
Identifier
56627, 2022-151AFB
Orbit
SSO
Country
Flag of CNCN / PRC
Related business
Manufacturer
SAST
Mission
Spacecraft
Bus & Motor
Unknown
Mass
Unknown
Launch date (UTC)
2022-11-11 (4 years ago)
Launch vehicle
Unknown
Launch site
Taiyaun Space Center, China (TSC)
Object type
Payload
Rocket body
Debris
Shape & HBR
Unknown shape, 0.1 m
Radar Cross Section
Small (<0.1 m²)

Expand to show TLE details & history
Last TLE update: 1 day ago

TLE from 1 day ago
0 CZ-6A DEB
1 56627U 22151AFB 26144.00868436  .00001803  00000-0  86234-3 0  9997
2 56627  98.8230 156.3818 0036711  20.8792 339.3874 14.20025657168314
Epoch: 2026-05-24T00:12Z
TLE epoch observation values (Epoch: 2026-05-24T00:12:30.328Z)
Latitude
-0.00003°
Longitude
-88.36156°
Altitude
803.433 km
Speed
7.465 km/s
True Right ascension
10h 25m 31s
True Declination
0° 00' 00"
Sunlit
Object was in daylight at epoch
Visualization orbit readout
Latitude
Unknown
Longitude
Unknown
Altitude
Unknown
Speed
Unknown
Apparent Right ascension
Unknown
Apparent Declination
Unknown
Sunlit
N/A
Visualization observer readout
Local Sidereal Time
10:16:12
Azimuth
Unknown
Elevation
Unknown
Doppler factor
Unknown
Orbital elements
Apogee altitude
848.864 km
Perigee altitude
795.996 km
Semi-major axis
7,200.567 km
Eccentricity
0.00367
Inclination
98.823°
RAAN
156.3818°
Arg. of periapsis
20.8792°
True anomaly
339.23866°
Mean anomaly
339.3874°
Eccentric anomaly
339.3131°
Mean motion
3.55216 °/min
Orbital period
101.35 mins
BSTAR
0.00086234
Loading maneuver chart data...
Computing Atmospheric mass density...
Loading historical data...
Loading historical data...
Loading historical data...
Loading historical data...
Loading historical data...
Loading historical data...
Loading historical data...

Documentation

Showing up to 5 results
|